Regional Weather Roundup
Issued by NWS Goodland, KS

Home | Current Version | Previous Version | Graphics & Text | Print | Product List | Glossary On
Versions: 1 2 3 4 5 6 7 8 9 10 11 12 13 14 15 16 17 18 19 20 21 22 23 24 25 26 27 28 29 30 31 32 33 34 35 36 37 38 39 40 41 42 43 44 45 46 47 48 49 50
000
ASUS43 KGLD 270208
RWRGLD

GOODLAND FORECAST AREA HOURLY WEATHER ROUNDUP
NATIONAL WEATHER SERVICE GOODLAND KS
800 PM MDT FRI AUG 26 2016

...OFFICIAL OBSERVATIONS...

CITY           SKY/WX    TMP DP  RH WIND       PRES   REMARKS
GOODLAND KS    CLOUDY    59  50  72 CALM      30.07S
HILL CITY KS   CLOUDY    68  63  84 E8        30.03F
IMPERIAL NEB   CLOUDY    59  57  93 CALM      30.06S
MCCOOK NEB     LGT RAIN  60  57  89 E20       30.02F
AKRON CO       CLOUDY    57  52  83 E10       30.10R
BURLINGTON CO  CLEAR     62  51  67 E12       30.08R
LIMON CO       CLEAR     61  47  59 SE7       30.12R
$$

...UNOFFICIAL OBSERVATIONS...

CITY           SKY/WX    TMP DP  RH WIND       PRES   REMARKS
LENORA KS        N/A     68  32  26 MISG        N/A
SHARON SPRINGS   N/A     64  57  79 E5          N/A
TRENTON NEB      N/A     57  32  39 MISG        N/A
KIT CARSON CO    N/A     65  54  66 MISG        N/A
YUMA CO          N/A     56  52  88 S5          N/A
$$




USA.gov is the U.S. government's official web portal to all federal, state and local government web resources and services.